User: anonymous   Login
Location: Unspecified
(0.0000°N, 0.0000°E)
Time: 03:41:17
(UTC+02:00)
Language:

SJ-6B - Orbit

View from above orbital plane
View from above orbital plane
View from above satellite
View from above satellite

Ground track
Ground track

The orbit data is extracted from the following two-line orbital elements,

1 28415U 04035C   16270.51812497  .00000335  00000-0  27032-4 0  9994
2 28415  97.7728 291.9765 0051218 296.5689  63.0293 15.05878139658899
Epoch (UTC): 26 September 2016 12:26:05
Eccentricity: 0.0051218
inclination: 97.7728°
perigee height: 513 km
apogee height: 584 km
right ascension of ascending node: 291.9765°
argument of perigee: 296.5689°
revolutions per day: 15.05878139
mean anomaly at epoch: 63.0293°
orbit number at epoch: 65889

The dashed part of the orbit path shows where the satellite is in the earth's shadow,  

DLR